When you browse on this site, cookies collect data to enhance your experience and personalize the content and advertising you see.
Visit our Privacy Policy to learn more. By continuing to use the site, you agree to this use of cookies and data.
  • In Lithuania
  • List of Countries
  • For 7 days
  • Water Temperature
  • Satellite Maps
  • Weather Map
  • Weather Widgets
  • user-avatar
    Login

    Hourly Weather Mérida

    Today, 20 February, Wednesday

    Time Temperature Precipitation Wind Pressure Humidity
    00:00 +15°C° 0.3 mm 1 mps 593 mmHg 73%
    01:00 +15°C° 0.3 mm 2 mps 593 mmHg 72%
    02:00 +15°C° 0.2 mm 2 mps 593 mmHg 73%
    03:00 +15°C° 0.2 mm 2 mps 592 mmHg 74%
    04:00 +14°C° 0.2 mm 2 mps 592 mmHg 75%
    05:00 +15°C° 0.4 mm 2 mps 593 mmHg 75%
    06:00 +15°C° 0.4 mm 2 mps 593 mmHg 76%
    07:00 +16°C° 0.4 mm 2 mps 594 mmHg 77%
    08:00 +17°C° 0.9 mm 2 mps 594 mmHg 75%
    09:00 +19°C° 0.9 mm 1 mps 595 mmHg 74%
    10:00 +20°C° 0.9 mm 1 mps 596 mmHg 73%
    11:00 +20°C° 1.7 mm 1 mps 595 mmHg 73%
    12:00 +20°C° 1.7 mm 1 mps 595 mmHg 73%
    13:00 +20°C° 1.7 mm 1 mps 594 mmHg 73%
    14:00 +20°C° 1.5 mm 1 mps 594 mmHg 73%
    15:00 +20°C° 1.5 mm 1 mps 593 mmHg 73%
    16:00 +20°C° 1.5 mm 1 mps 593 mmHg 73%
    17:00 +19°C° 0.6 mm 1 mps 592 mmHg 76%
    18:00 +18°C° 0.6 mm 1 mps 592 mmHg 80%
    19:00 +15°C° 0.6 mm 0 mps 592 mmHg 83%
    20:00 +15°C° 0.3 mm 0 mps 592 mmHg 81%
    21:00 +16°C° 0.3 mm 1 mps 593 mmHg 79%
    22:00 +16°C° 0.3 mm 1 mps 593 mmHg 77%
    23:00 +16°C° 0.2 mm 1 mps 593 mmHg 76%

    Tomorrow, 21 February, Thursday

    Time Temperature Precipitation Wind Pressure Humidity
    00:00 +15°C° 0.2 mm 1 mps 593 mmHg 76%
    01:00 +15°C° 0.2 mm 1 mps 593 mmHg 75%
    02:00 +15°C° 0.3 mm 1 mps 592 mmHg 76%
    03:00 +15°C° 0.3 mm 1 mps 592 mmHg 77%
    04:00 +15°C° 0.3 mm 2 mps 592 mmHg 78%
    05:00 +15°C° 0.5 mm 2 mps 593 mmHg 77%
    06:00 +15°C° 0.5 mm 2 mps 593 mmHg 76%
    07:00 +16°C° 0.5 mm 2 mps 594 mmHg 75%
    08:00 +18°C° 0.5 mm 1 mps 595 mmHg 71%
    09:00 +20°C° 0.5 mm 1 mps 596 mmHg 68%
    10:00 +21°C° 0.5 mm 1 mps 597 mmHg 65%
    11:00 +21°C° 0.8 mm 1 mps 596 mmHg 65%
    12:00 +22°C° 0.8 mm 1 mps 595 mmHg 64%
    13:00 +22°C° 0.8 mm 1 mps 594 mmHg 64%
    14:00 +22°C° 0.9 mm 1 mps 594 mmHg 64%
    15:00 +22°C° 0.9 mm 1 mps 593 mmHg 64%
    16:00 +22°C° 0.9 mm 1 mps 593 mmHg 65%
    17:00 +20°C° 0.3 mm 1 mps 592 mmHg 70%
    18:00 +18°C° 0.3 mm 1 mps 592 mmHg 75%
    19:00 +16°C° 0.3 mm 1 mps 592 mmHg 80%
    20:00 +16°C° 0 mm 1 mps 592 mmHg 78%
    21:00 +15°C° 0 mm 1 mps 592 mmHg 76%
    22:00 +15°C° 0 mm 1 mps 593 mmHg 74%
    23:00 +15°C° 0 mm 1 mps 593 mmHg 73%

    Day after tomorrow, 22 February, Friday

    Time Temperature Precipitation Wind Pressure Humidity
    00:00 +14°C° 0 mm 2 mps 592 mmHg 71%
    01:00 +14°C° 0 mm 2 mps 592 mmHg 70%
    02:00 +14°C° 0 mm 2 mps 592 mmHg 71%
    03:00 +14°C° 0 mm 2 mps 592 mmHg 73%
    04:00 +14°C° 0 mm 2 mps 591 mmHg 75%
    05:00 +14°C° 0 mm 2 mps 592 mmHg 75%
    06:00 +15°C° 0 mm 2 mps 593 mmHg 75%
    07:00 +16°C° 0 mm 2 mps 594 mmHg 75%
    08:00 +17°C° 0 mm 2 mps 595 mmHg 72%
    09:00 +19°C° 0 mm 2 mps 596 mmHg 70%
    10:00 +22°C° 0 mm 1 mps 597 mmHg 67%
    11:00 +21°C° 0.4 mm 1 mps 596 mmHg 71%
    12:00 +20°C° 0.4 mm 1 mps 595 mmHg 76%
    13:00 +19°C° 0.4 mm 1 mps 594 mmHg 81%
    14:00 +19°C° 0.6 mm 1 mps 593 mmHg 81%
    15:00 +19°C° 0.6 mm 1 mps 593 mmHg 81%
    16:00 +19°C° 0.6 mm 1 mps 592 mmHg 82%
    17:00 +19°C° 0.5 mm 1 mps 592 mmHg 84%
    18:00 +18°C° 0.5 mm 1 mps 592 mmHg 87%
    19:00 +15°C° 0.5 mm 0 mps 592 mmHg 90%
    20:00 +15°C° 0.9 mm 0 mps 593 mmHg 89%
    21:00 +16°C° 0.9 mm 1 mps 594 mmHg 88%
    22:00 +16°C° 0.9 mm 1 mps 594 mmHg 87%
    23:00 +16°C° 1.3 mm 1 mps 594 mmHg 87%

    23 February, Saturday

    Time Temperature Precipitation Wind Pressure Humidity
    00:00 +16°C° 1.3 mm 1 mps 593 mmHg 87%
    01:00 +15°C° 1.3 mm 1 mps 593 mmHg 87%
    02:00 +15°C° 1 mm 1 mps 593 mmHg 87%
    03:00 +15°C° 1 mm 1 mps 593 mmHg 87%
    04:00 +15°C° 1 mm 1 mps 593 mmHg 87%
    05:00 +15°C° 0.4 mm 1 mps 593 mmHg 86%
    06:00 +16°C° 0.4 mm 1 mps 594 mmHg 85%
    07:00 +16°C° 0.4 mm 1 mps 595 mmHg 84%
    08:00 +18°C° 0.3 mm 1 mps 595 mmHg 81%
    09:00 +19°C° 0.3 mm 1 mps 596 mmHg 78%
    10:00 +20°C° 0.3 mm 1 mps 597 mmHg 75%
    11:00 +20°C° 0.6 mm 1 mps 596 mmHg 76%
    12:00 +20°C° 0.6 mm 1 mps 595 mmHg 76%
    13:00 +20°C° 0.6 mm 1 mps 594 mmHg 76%
    14:00 +20°C° 1 mm 1 mps 593 mmHg 75%
    15:00 +20°C° 1 mm 1 mps 593 mmHg 74%
    16:00 +20°C° 1 mm 1 mps 592 mmHg 73%
    17:00 +19°C° 0.5 mm 1 mps 592 mmHg 76%
    18:00 +18°C° 0.5 mm 1 mps 592 mmHg 78%
    19:00 +15°C° 0.5 mm 0 mps 592 mmHg 80%
    20:00 +15°C° 0.1 mm 1 mps 593 mmHg 77%
    21:00 +15°C° 0.1 mm 1 mps 593 mmHg 74%
    22:00 +14°C° 0.1 mm 1 mps 593 mmHg 71%
    23:00 +14°C° 0 mm 1 mps 593 mmHg 63%

    24 February, Sunday

    Time Temperature Precipitation Wind Pressure Humidity
    00:00 +13°C° 0 mm 2 mps 592 mmHg 55%
    01:00 +12°C° 0 mm 2 mps 592 mmHg 48%
    02:00 +12°C° 0 mm 2 mps 591 mmHg 44%
    03:00 +12°C° 0 mm 2 mps 591 mmHg 41%
    04:00 +12°C° 0 mm 2 mps 591 mmHg 38%
    05:00 +12°C° 0 mm 2 mps 592 mmHg 37%
    06:00 +13°C° 0 mm 2 mps 593 mmHg 37%
    07:00 +14°C° 0 mm 2 mps 594 mmHg 37%
    08:00 +16°C° 0 mm 2 mps 595 mmHg 34%
    09:00 +19°C° 0 mm 2 mps 596 mmHg 32%
    10:00 +21°C° 0 mm 2 mps 597 mmHg 29%
    11:00 +23°C° 0 mm 2 mps 597 mmHg 29%
    12:00 +23°C° 0 mm 2 mps 596 mmHg 29%
    13:00 +24°C° 0 mm 2 mps 596 mmHg 29%
    14:00 +23°C° 0 mm 2 mps 595 mmHg 30%
    15:00 +23°C° 0 mm 2 mps 594 mmHg 32%
    16:00 +21°C° 0 mm 2 mps 593 mmHg 33%
    17:00 +20°C° 0 mm 1 mps 592 mmHg 41%
    18:00 +18°C° 0 mm 1 mps 592 mmHg 48%
    19:00 +14°C° 0 mm 1 mps 591 mmHg 56%
    20:00 +14°C° 0 mm 1 mps 591 mmHg 54%
    21:00 +14°C° 0 mm 1 mps 592 mmHg 53%
    22:00 +13°C° 0 mm 1 mps 592 mmHg 52%
    23:00 +13°C° 0 mm 1 mps 591 mmHg 49%

    25 February, Monday

    Time Temperature Precipitation Wind Pressure Humidity
    00:00 +13°C° 0 mm 2 mps 591 mmHg 46%
    01:00 +12°C° 0 mm 2 mps 591 mmHg 43%
    02:00 +12°C° 0 mm 2 mps 591 mmHg 44%
    03:00 +12°C° 0 mm 2 mps 591 mmHg 44%
    04:00 +12°C° 0 mm 2 mps 591 mmHg 45%
    05:00 +13°C° 0 mm 2 mps 592 mmHg 45%
    06:00 +13°C° 0 mm 2 mps 593 mmHg 46%
    07:00 +14°C° 0 mm 2 mps 594 mmHg 46%
    08:00 +17°C° 0 mm 2 mps 595 mmHg 42%
    09:00 +19°C° 0 mm 2 mps 596 mmHg 38%
    10:00 +21°C° 0 mm 2 mps 597 mmHg 34%
    11:00 +23°C° 0 mm 2 mps 597 mmHg 32%
    12:00 +24°C° 0 mm 2 mps 596 mmHg 31%
    13:00 +24°C° 0 mm 2 mps 595 mmHg 29%
    14:00 +24°C° 0 mm 2 mps 595 mmHg 30%
    15:00 +23°C° 0 mm 2 mps 594 mmHg 31%
    16:00 +23°C° 0 mm 2 mps 593 mmHg 32%
    17:00 +20°C° 0 mm 1 mps 592 mmHg 39%
    18:00 +18°C° 0 mm 1 mps 592 mmHg 47%
    19:00 +14°C° 0 mm 1 mps 591 mmHg 54%
    20:00 +14°C° 0 mm 1 mps 591 mmHg 52%
    21:00 +14°C° 0 mm 1 mps 592 mmHg 50%
    22:00 +13°C° 0 mm 1 mps 592 mmHg 47%
    23:00 +13°C° 0 mm 1 mps 592 mmHg 47%
    Show more